This is the latest recevied weather packets stored in our database for station/object NC4M. If no packets are shown the sender has not sent any weather packets the latest 1 day(s).
| Time | Temp. | Humidity | Pressure | Rain* | Wind** | Luminosity | Snow |
|---|---|---|---|---|---|---|---|
| 1778036018 | 6.11° C | 94% | 1012.9 hPa | 0 mm | - | 0 W/m² | - |
| 1778035715 | 6.11° C | 94% | 1013.1 hPa | 1.27 mm | - | 0 W/m² | - |
| 1778035412 | 6.67° C | 94% | 1012.6 hPa | 3.05 mm | - | 0 W/m² | - |
| 1778034805 | 6.67° C | 94% | 1011.7 hPa | 3.56 mm | - | 0 W/m² | - |
| 1778034502 | 6.67° C | 94% | 1012.4 hPa | 1.27 mm | - | 0 W/m² | - |
| 1778034200 | 6.67° C | 94% | 1012.8 hPa | 3.05 mm | - | 0 W/m² | - |
| 1778033898 | 6.67° C | 93% | 1012.1 hPa | 4.83 mm | - | 0 W/m² | - |
| 1778033594 | 6.67° C | 93% | 1011.8 hPa | 4.32 mm | - | 0 W/m² | - |
| 1778033291 | 6.67° C | 93% | 1011.9 hPa | 3.05 mm | - | 0 W/m² | - |
| 1778032687 | 6.67° C | 93% | 1012.4 hPa | 0 mm | - | 0 W/m² | - |
| 1778032384 | 6.67° C | 93% | 1012.2 hPa | 0 mm | - | 0 W/m² | - |
| 1778032080 | 6.67° C | 92% | 1012.2 hPa | 0 mm | - | 0 W/m² | - |
| 1778031777 | 6.67° C | 93% | 1011.9 hPa | 0 mm | - | 0 W/m² | - |
| 1778031474 | 6.67° C | 92% | 1011.8 hPa | 0 mm | - | 0 W/m² | - |
| 1778030868 | 6.67° C | 93% | 1011.8 hPa | 0 mm | - | 0 W/m² | - |
| 1778030565 | 6.67° C | 93% | 1011.9 hPa | 0 mm | - | 0 W/m² | - |
| 1778030262 | 6.67° C | 93% | 1011.6 hPa | 0 mm | - | 0 W/m² | - |
| 1778029958 | 6.67° C | 93% | 1012 hPa | 1.27 mm | - | 0 W/m² | - |
| 1778029657 | 6.67° C | 93% | 1011.2 hPa | 1.27 mm | - | 0 W/m² | - |
| 1778029051 | 6.67° C | 94% | 1011.5 hPa | 0 mm | - | 1 W/m² | - |
| 1778028747 | 6.67° C | 93% | 1011.3 hPa | 0 mm | - | 1 W/m² | - |
| 1778028443 | 6.67° C | 93% | 1011.2 hPa | 1.78 mm | - | 1 W/m² | - |
| 1778028141 | 6.67° C | 93% | 1011 hPa | 4.83 mm | - | 2 W/m² | - |
| 1778027837 | 6.67° C | 93% | 1011.2 hPa | 4.32 mm | - | 2 W/m² | - |
| 1778027534 | 6.67° C | 93% | 1011 hPa | 1.27 mm | - | 3 W/m² | - |
* Rain latest hour (hover to see other rain measurements)
** Current wind speed in m/s (hover to see current wind gust speed)